Location: Moscow
(55.7500°N, 37.5830°E)
Time: 19:19:28
(UTC+03:00)

Tiros 1 - Pass Details

Date: 08 December 2021
Orbit: 629 x 664 km, 48.4° (Epoch: 19 January)

Event Time Altitude Azimuth Distance (km) Brightness Sun altitude
Rises 20:11:36 0° 254° (WSW) 2,926 11.4 -34.0°
Reaches altitude 10° 20:14:04 10° 245° (WSW) 2,023 10.3 -34.4°
Enters shadow 20:15:10 16° 237° (WSW) 1,654 9.6 -34.5°
